{"data":{"norad_id":65594,"intl_designator":"2025-207C","name":"STARLINK-35191","alt_names":[],"object_type":"PAYLOAD","status":"ACTIVE","operator":null,"country":"US","launch_date":"2025-09-13","launch_site_code":"AFWTR","launch_vehicle":null,"mission":null,"orbit_class":"UNKNOWN","rcs_meters":null,"size_class":null,"mass_kg":null,"dimensions":null,"purposes":["comms"],"wikipedia_slug":null,"has_3d_model":false,"image_url":null,"decayed_at":null,"tle_current":{"epoch":"2026-09-20T22:00:03.000096Z","epoch_age_seconds":76070,"freshness":"FRESH","line1":"1 65594U 25207C   26263.91670139 -.00010073  00000+0 -31052-3 0  9996","line2":"2 65594  97.2854 326.3720 0001661  81.9783  48.5292 15.33399076  5796","mean_motion":15.33399076,"eccentricity":0.0001661,"inclination_deg":97.2854,"raan_deg":326.372,"arg_perigee_deg":81.9783,"mean_anomaly_deg":48.5292,"bstar":-0.00031052,"rev_number":579,"period_min":93.909017067909,"perigee_km":464.54305742895,"apogee_km":466.81657337502,"semimajor_km":6843.816815402,"source":"CELESTRAK","updated_at":"2026-09-21T09:00:35.653132Z"}}}